TimeCDT,TemperatureF,Dew PointF,Humidity,Sea Level PressureIn,VisibilityMPH,Wind Direction,Wind SpeedMPH,Gust SpeedMPH,PrecipitationIn,Events,Conditions,WindDirDegrees,DateUTC
12:07 AM,26.6,24.8,93,30.08,1.5,Calm,Calm,-,N/A,,Mostly Cloudy,0,2011-10-28 05:07:00
12:09 AM,26.6,24.8,93,30.08,0.8,Calm,Calm,-,N/A,,Mist,0,2011-10-28 05:09:00
12:56 AM,26.1,26.1,100,30.11,1.2,Calm,Calm,-,N/A,,Scattered Clouds,0,2011-10-28 05:56:00
12:59 AM,26.6,26.6,100,30.08,4.0,Calm,Calm,-,N/A,,Partly Cloudy,0,2011-10-28 05:59:00
1:56 AM,26.1,24.1,92,30.11,6.0,Calm,Calm,-,N/A,,Scattered Clouds,0,2011-10-28 06:56:00
2:05 AM,26.6,24.8,93,30.08,1.8,Calm,Calm,-,N/A,,Mostly Cloudy,0,2011-10-28 07:05:00
2:11 AM,26.6,24.8,93,30.08,0.8,Calm,Calm,-,N/A,,Mist,0,2011-10-28 07:11:00
2:22 AM,26.6,24.8,93,30.08,0.2,Calm,Calm,-,N/A,Fog,Light Freezing Fog,0,2011-10-28 07:22:00
2:56 AM,26.1,25.0,96,30.11,0.2,Calm,Calm,-,N/A,Fog,Light Freezing Fog,0,2011-10-28 07:56:00
3:11 AM,26.6,24.8,93,30.08,0.5,Calm,Calm,-,N/A,Fog,Light Freezing Fog,0,2011-10-28 08:11:00
3:24 AM,24.8,24.8,100,30.08,0.2,Calm,Calm,-,N/A,Fog,Light Freezing Fog,0,2011-10-28 08:24:00
3:56 AM,24.1,23.0,96,30.11,0.2,Calm,Calm,-,N/A,Fog,Light Freezing Fog,0,2011-10-28 08:56:00
4:31 AM,24.8,24.8,100,30.08,0.2,Calm,Calm,-,N/A,Fog,Light Freezing Fog,0,2011-10-28 09:31:00
4:56 AM,26.1,25.0,96,30.10,0.5,Calm,Calm,-,N/A,Fog,Light Freezing Fog,0,2011-10-28 09:56:00
5:03 AM,26.6,24.8,93,30.07,1.0,Calm,Calm,-,N/A,,Overcast,0,2011-10-28 10:03:00
5:29 AM,26.6,26.6,100,30.07,0.8,Calm,Calm,-,N/A,,Mist,0,2011-10-28 10:29:00
5:56 AM,25.0,24.1,96,30.09,1.0,Calm,Calm,-,N/A,,Mist,0,2011-10-28 10:56:00
6:10 AM,24.8,23.0,93,30.06,1.5,Calm,Calm,-,N/A,,Overcast,0,2011-10-28 11:10:00
6:13 AM,24.8,23.0,93,30.06,3.0,Calm,Calm,-,N/A,,Overcast,0,2011-10-28 11:13:00
6:25 AM,24.8,23.0,93,30.06,6.0,Calm,Calm,-,N/A,,Overcast,0,2011-10-28 11:25:00
6:35 AM,24.8,24.8,100,30.06,1.8,Calm,Calm,-,N/A,,Overcast,0,2011-10-28 11:35:00
6:44 AM,26.6,24.8,93,30.06,0.5,Calm,Calm,-,N/A,Fog,Light Freezing Fog,0,2011-10-28 11:44:00
6:56 AM,26.1,24.1,92,30.09,0.8,Calm,Calm,-,N/A,,Scattered Clouds,0,2011-10-28 11:56:00
7:04 AM,24.8,23.0,93,30.06,1.0,Calm,Calm,-,N/A,,Mostly Cloudy,0,2011-10-28 12:04:00
7:11 AM,24.8,24.8,100,30.06,3.0,Calm,Calm,-,N/A,,Scattered Clouds,0,2011-10-28 12:11:00
7:56 AM,25.0,24.1,96,30.09,5.0,Calm,Calm,-,N/A,,Mostly Cloudy,0,2011-10-28 12:56:00
8:56 AM,30.0,30.0,100,30.09,5.0,Calm,Calm,-,N/A,,Overcast,0,2011-10-28 13:56:00
9:56 AM,35.1,34.0,96,30.07,10.0,Calm,Calm,-,N/A,,Overcast,0,2011-10-28 14:56:00
10:56 AM,39.9,33.1,77,30.06,10.0,Calm,Calm,-,N/A,,Overcast,0,2011-10-28 15:56:00
11:56 AM,45.0,30.9,58,30.04,10.0,Variable,3.5,-,N/A,,Overcast,0,2011-10-28 16:56:00
12:56 PM,46.9,30.0,52,30.04,10.0,West,5.8,-,N/A,,Overcast,260,2011-10-28 17:56:00
1:56 PM,48.2,28.4,46,29.99,10.0,Calm,Calm,-,N/A,,Mostly Cloudy,0,2011-10-28 18:56:00
2:56 PM,50.0,28.9,44,30.00,10.0,West,6.9,-,N/A,,Scattered Clouds,260,2011-10-28 19:56:00
3:56 PM,51.1,28.9,43,30.00,10.0,NW,8.1,-,N/A,,Partly Cloudy,320,2011-10-28 20:56:00
4:56 PM,51.1,28.9,43,30.00,10.0,NW,4.6,-,N/A,,Clear,320,2011-10-28 21:56:00
5:56 PM,46.9,28.9,50,29.99,10.0,Calm,Calm,-,N/A,,Scattered Clouds,0,2011-10-28 22:56:00
6:56 PM,42.1,30.0,62,30.01,10.0,Calm,Calm,-,N/A,,Mostly Cloudy,0,2011-10-28 23:56:00
7:56 PM,39.0,30.0,70,30.02,10.0,Calm,Calm,-,N/A,,Clear,0,2011-10-29 00:56:00
8:56 PM,36.0,27.0,70,30.02,10.0,WSW,3.5,-,N/A,,Clear,250,2011-10-29 01:56:00
9:56 PM,34.0,26.1,73,30.02,10.0,WSW,3.5,-,N/A,,Clear,240,2011-10-29 02:56:00
10:56 PM,34.0,25.0,70,30.01,10.0,SSW,3.5,-,N/A,,Clear,210,2011-10-29 03:56:00
11:56 PM,30.9,25.0,79,30.01,10.0,Calm,Calm,-,N/A,,Mostly Cloudy,0,2011-10-29 04:56:00